When you browse on this site, cookies collect data to enhance your experience and personalize the content and advertising you see.
Visit our Privacy Policy to learn more. By continuing to use the site, you agree to this use of cookies and data.
  • In Hungary
  • List of Countries
  • For 7 days
  • Water Temperature
  • Satellite Maps
  • Weather Map
  • News
  • Weather Widgets
  • user-avatar
    Login

    Hourly Weather Paralia

    Today, 17 November, Saturday

    Time Temperature Precipitation Wind Pressure Humidity
    00:00 +10°C° 1.1 mm 3 mps 751 mmHg 85%
    01:00 +8°C° 0 mm 4 mps 751 mmHg 84%
    02:00 +8°C° 1.2 mm 4 mps 750 mmHg 85%
    03:00 +10°C° 1.2 mm 4 mps 750 mmHg 85%
    04:00 +10°C° 1.2 mm 4 mps 750 mmHg 85%
    05:00 +10°C° 1 mm 4 mps 750 mmHg 85%
    06:00 +10°C° 1 mm 4 mps 750 mmHg 85%
    07:00 +10°C° 1 mm 4 mps 750 mmHg 84%
    08:00 +10°C° 0.8 mm 4 mps 750 mmHg 83%
    09:00 +10°C° 0.8 mm 4 mps 751 mmHg 83%
    10:00 +11°C° 0.8 mm 4 mps 751 mmHg 82%
    11:00 +11°C° 0.3 mm 4 mps 751 mmHg 81%
    12:00 +11°C° 0.3 mm 4 mps 751 mmHg 80%
    13:00 +11°C° 0.3 mm 4 mps 750 mmHg 79%
    14:00 +11°C° 0.3 mm 4 mps 750 mmHg 80%
    15:00 +11°C° 0.3 mm 4 mps 750 mmHg 80%
    16:00 +11°C° 0.3 mm 4 mps 750 mmHg 81%
    17:00 +11°C° 0.5 mm 4 mps 750 mmHg 82%
    18:00 +11°C° 0.5 mm 4 mps 750 mmHg 83%
    19:00 +11°C° 0.5 mm 4 mps 750 mmHg 84%
    20:00 +11°C° 0.7 mm 4 mps 750 mmHg 84%
    21:00 +11°C° 0.7 mm 4 mps 750 mmHg 84%
    22:00 +10°C° 0.7 mm 5 mps 750 mmHg 84%
    23:00 +10°C° 0.5 mm 5 mps 750 mmHg 83%

    Tomorrow, 18 November, Sunday

    Time Temperature Precipitation Wind Pressure Humidity
    00:00 +11°C° 0.5 mm 4 mps 749 mmHg 83%
    01:00 +11°C° 0.5 mm 4 mps 749 mmHg 83%
    02:00 +11°C° 0.6 mm 4 mps 749 mmHg 83%
    03:00 +11°C° 0.6 mm 4 mps 748 mmHg 84%
    04:00 +11°C° 0.6 mm 4 mps 748 mmHg 84%
    05:00 +11°C° 1.4 mm 4 mps 748 mmHg 85%
    06:00 +10°C° 1.4 mm 5 mps 747 mmHg 86%
    07:00 +10°C° 1.4 mm 5 mps 747 mmHg 87%
    08:00 +10°C° 2 mm 5 mps 747 mmHg 87%
    09:00 +10°C° 2 mm 5 mps 747 mmHg 87%
    10:00 +10°C° 2 mm 5 mps 747 mmHg 86%
    11:00 +12°C° 1.5 mm 5 mps 746 mmHg 86%
    12:00 +12°C° 1.5 mm 4 mps 745 mmHg 86%
    13:00 +12°C° 1.5 mm 4 mps 745 mmHg 86%
    14:00 +12°C° 1.1 mm 4 mps 744 mmHg 86%
    15:00 +12°C° 1.1 mm 4 mps 744 mmHg 86%
    16:00 +12°C° 1.1 mm 4 mps 744 mmHg 86%
    17:00 +12°C° 1.8 mm 4 mps 743 mmHg 88%
    18:00 +12°C° 1.8 mm 3 mps 743 mmHg 90%
    19:00 +12°C° 1.8 mm 3 mps 743 mmHg 91%
    20:00 +13°C° 1 mm 2 mps 743 mmHg 91%
    21:00 +14°C° 1 mm 2 mps 743 mmHg 92%
    22:00 +14°C° 1 mm 2 mps 743 mmHg 92%
    23:00 +14°C° 0.1 mm 1 mps 743 mmHg 92%

    Day after tomorrow, 19 November, Monday

    Time Temperature Precipitation Wind Pressure Humidity
    00:00 +14°C° 0.1 mm 1 mps 743 mmHg 92%
    01:00 +14°C° 0.1 mm 1 mps 743 mmHg 93%
    02:00 +14°C° 0.1 mm 1 mps 743 mmHg 93%
    03:00 +15°C° 0.1 mm 2 mps 743 mmHg 94%
    04:00 +15°C° 0.1 mm 2 mps 744 mmHg 94%
    05:00 +14°C° 0 mm 2 mps 744 mmHg 95%
    06:00 +14°C° 0 mm 1 mps 745 mmHg 95%
    07:00 +14°C° 0 mm 1 mps 745 mmHg 95%
    08:00 +15°C° 0 mm 1 mps 745 mmHg 89%
    09:00 +16°C° 0 mm 1 mps 746 mmHg 83%
    10:00 +19°C° 0 mm 1 mps 746 mmHg 77%
    11:00 +19°C° 0 mm 1 mps 746 mmHg 72%
    12:00 +20°C° 0 mm 1 mps 746 mmHg 68%
    13:00 +20°C° 0 mm 1 mps 746 mmHg 63%
    14:00 +19°C° 0 mm 1 mps 746 mmHg 68%
    15:00 +18°C° 0 mm 1 mps 746 mmHg 72%
    16:00 +15°C° 0 mm 0 mps 746 mmHg 77%
    17:00 +16°C° 0 mm 1 mps 747 mmHg 78%
    18:00 +15°C° 0 mm 1 mps 747 mmHg 79%
    19:00 +15°C° 0 mm 1 mps 747 mmHg 80%
    20:00 +15°C° 0 mm 1 mps 747 mmHg 79%
    21:00 +14°C° 0 mm 2 mps 748 mmHg 78%
    22:00 +14°C° 0 mm 2 mps 748 mmHg 77%
    23:00 +14°C° 0 mm 2 mps 748 mmHg 75%

    20 November, Tuesday

    Time Temperature Precipitation Wind Pressure Humidity
    00:00 +14°C° 0 mm 2 mps 748 mmHg 73%
    01:00 +14°C° 0 mm 2 mps 748 mmHg 71%
    02:00 +14°C° 0 mm 2 mps 748 mmHg 69%
    03:00 +14°C° 0 mm 2 mps 748 mmHg 68%
    04:00 +13°C° 0 mm 3 mps 748 mmHg 66%
    05:00 +13°C° 0 mm 3 mps 748 mmHg 65%
    06:00 +13°C° 0 mm 3 mps 748 mmHg 64%
    07:00 +13°C° 0 mm 3 mps 748 mmHg 63%
    08:00 +16°C° 0 mm 3 mps 748 mmHg 63%
    09:00 +17°C° 0 mm 3 mps 748 mmHg 63%
    10:00 +18°C° 0 mm 3 mps 748 mmHg 63%
    11:00 +19°C° 0 mm 4 mps 748 mmHg 61%
    12:00 +20°C° 0 mm 4 mps 747 mmHg 59%
    13:00 +21°C° 0 mm 4 mps 747 mmHg 57%
    14:00 +20°C° 0 mm 4 mps 747 mmHg 61%
    15:00 +19°C° 0 mm 4 mps 746 mmHg 65%
    16:00 +18°C° 0 mm 3 mps 746 mmHg 70%
    17:00 +18°C° 0 mm 3 mps 746 mmHg 71%
    18:00 +17°C° 0 mm 4 mps 746 mmHg 72%
    19:00 +17°C° 0 mm 4 mps 746 mmHg 72%
    20:00 +17°C° 0.9 mm 4 mps 747 mmHg 74%
    21:00 +17°C° 0.9 mm 3 mps 747 mmHg 75%
    22:00 +16°C° 0.9 mm 3 mps 747 mmHg 77%
    23:00 +16°C° 0.4 mm 3 mps 747 mmHg 80%

    21 November, Wednesday

    Time Temperature Precipitation Wind Pressure Humidity
    00:00 +16°C° 0.4 mm 2 mps 747 mmHg 84%
    01:00 +16°C° 0.4 mm 2 mps 747 mmHg 87%
    02:00 +16°C° 0.1 mm 2 mps 747 mmHg 89%
    03:00 +16°C° 0.1 mm 2 mps 747 mmHg 91%
    04:00 +14°C° 0.1 mm 3 mps 747 mmHg 92%
    05:00 +14°C° 0.1 mm 3 mps 747 mmHg 92%
    06:00 +16°C° 0.1 mm 3 mps 748 mmHg 91%
    07:00 +16°C° 0.1 mm 3 mps 748 mmHg 91%
    08:00 +17°C° 0.1 mm 3 mps 748 mmHg 86%
    09:00 +18°C° 0.1 mm 3 mps 748 mmHg 81%
    10:00 +19°C° 0.1 mm 3 mps 749 mmHg 76%
    11:00 +19°C° 0.3 mm 3 mps 749 mmHg 76%
    12:00 +19°C° 0.3 mm 4 mps 748 mmHg 75%
    13:00 +20°C° 0.3 mm 4 mps 748 mmHg 74%
    14:00 +19°C° 0.3 mm 3 mps 748 mmHg 77%
    15:00 +18°C° 0.3 mm 3 mps 748 mmHg 81%
    16:00 +17°C° 0.3 mm 2 mps 749 mmHg 84%
    17:00 +17°C° 0.1 mm 2 mps 749 mmHg 86%
    18:00 +16°C° 0.1 mm 2 mps 749 mmHg 89%
    19:00 +16°C° 0.1 mm 1 mps 750 mmHg 91%
    20:00 +16°C° 0 mm 2 mps 750 mmHg 91%
    21:00 +15°C° 0 mm 2 mps 750 mmHg 92%
    22:00 +15°C° 0 mm 2 mps 750 mmHg 92%
    23:00 +15°C° 0.1 mm 2 mps 750 mmHg 93%

    22 November, Thursday

    Time Temperature Precipitation Wind Pressure Humidity
    00:00 +15°C° 0.1 mm 2 mps 750 mmHg 93%
    01:00 +15°C° 0.1 mm 2 mps 750 mmHg 93%
    02:00 +14°C° 0 mm 2 mps 750 mmHg 93%
    03:00 +14°C° 0 mm 2 mps 750 mmHg 93%
    04:00 +14°C° 0 mm 2 mps 750 mmHg 93%
    05:00 +14°C° 0 mm 2 mps 751 mmHg 92%
    06:00 +14°C° 0 mm 2 mps 751 mmHg 92%
    07:00 +14°C° 0 mm 2 mps 751 mmHg 91%
    08:00 +16°C° 0 mm 2 mps 751 mmHg 85%
    09:00 +17°C° 0 mm 2 mps 752 mmHg 79%
    10:00 +19°C° 0 mm 2 mps 752 mmHg 73%
    11:00 +20°C° 0 mm 1 mps 752 mmHg 70%
    12:00 +21°C° 0 mm 1 mps 751 mmHg 68%
    13:00 +21°C° 0 mm 1 mps 751 mmHg 66%
    14:00 +20°C° 0 mm 1 mps 751 mmHg 70%
    15:00 +19°C° 0 mm 1 mps 751 mmHg 74%
    16:00 +18°C° 0 mm 1 mps 751 mmHg 79%
    17:00 +18°C° 0 mm 1 mps 752 mmHg 82%
    18:00 +16°C° 0 mm 1 mps 752 mmHg 85%
    19:00 +15°C° 0 mm 1 mps 752 mmHg 88%
    20:00 +15°C° 0 mm 1 mps 752 mmHg 88%
    21:00 +15°C° 0 mm 1 mps 752 mmHg 89%
    22:00 +14°C° 0 mm 1 mps 753 mmHg 89%
    23:00 +14°C° 0 mm 1 mps 753 mmHg 89%
    Show more